Regional Weather Roundup
Issued by NWS Charleston, SC

Current Version | Previous Version | Text Only | Print | Product List | Glossary Off
Versions: 1 2 3 4 5 6 7 8 9 10 11 12 13 14 15 16 17 18 19 20 21 22 23 24 25 26 27 28 29 30 31 32 33 34 35 36 37 38 39 40 41 42 43 44 45 46 47 48 49 50
000 ASUS42 KCHS 120413 RWRCHS REGIONAL WEATHER ROUNDUP NATIONAL WEATHER SERVICE CHARLESTON SC 1100 PM EST THU FEB 11 2016 NOTE: "FAIR" INDICATES FEW OR NO CLOUDS BELOW 12,000 FEET WITH NO SIGNIFICANT WEATHER AND/OR OBSTRUCTIONS TO VISIBILITY. NOT ALL STATIONS ARE QUALITY CONTROLLED BY THE NATIONAL WEATHER SERVICE. USE DATA WITH CAUTION...ESPECIALLY DEWPOINT OBSERVATIONS. SCZ027-030-031-034>040-042>050-120500- ...SOUTHEAST SOUTH CAROLINA... CITY SKY/WX TMP DP RH WIND PRES REMARKS N CHARLESTON MOCLDY 43 35 73 CALM 30.22F WATERFRONT PRK N/A 46 41 82 NE6 30.08F MOUNT PLEASANT CLOUDY 37 36 93 CALM 30.24F JOHNS ISLAND CLOUDY 43 39 87 CALM 30.22F PINOPOLIS N/A 45 34 65 VRB3 30.15F MONCKS CORNER CLOUDY 41 28 60 CALM 30.23F SUMMERVILLE CLOUDY 41 36 81 CALM 30.23F BEAUFORT MCAS CLOUDY 45 41 86 CALM 30.21S BEAUFORT ARPT CLOUDY 45 37 76 E5 30.20S HILTON HEAD IS CLEAR 50 45 81 NE3 30.21F WALTERBORO CLOUDY 45 36 70 E3 30.21F ALLENDALE CLOUDY 45 34 65 CALM 30.20S ...SOUTHERN MIDLANDS AND PEE DEE... CITY SKY/WX TMP DP RH WIND PRES REMARKS GEORGETOWN CLOUDY 37 34 87 CALM 30.27S KINGSTREE CLOUDY 36 30 80 CALM 30.25S ORANGEBURG CLOUDY 44 29 55 CALM 30.21F BARNWELL CLOUDY 45 34 65 CALM 30.21S AIKEN CLOUDY 36 30 80 CALM 30.23S MANNING CLOUDY 37 30 75 CALM 30.24S COLUMBIA PTCLDY 41 26 55 E3 30.22S SUMTER CLEAR 33 26 72 CALM 30.21F FLORENCE CLEAR 31 26 82 SE5 30.26R WCI 26 MYRTLE BEACH NOT AVBL N MYRTLE BEACH CLEAR 34 31 88 NE5 30.28R WCI 30 $$ GAZ063-065-086>088-099>101-113>116-118-119-134>141-150-120500- ...SOUTHEAST GEORGIA... CITY SKY/WX TMP DP RH WIND PRES REMARKS SAVANNAH ARPT CLEAR 44 37 76 E3 30.20S HUNTER AAF CLEAR 46 44 90 N2 30.17S FORT STEWART CLEAR 42 40 89 CALM 30.17S STATESBORO PTCLDY 44 36 72 CALM 30.20S SYLVANIA MOCLDY 44 38 80 CALM 30.21R CLAXTON FAIR 44 42 91 CALM 30.20S ...CSRA...CENTRAL AND FAR SOUTHEAST GEORGIA... CITY SKY/WX TMP DP RH WIND PRES REMARKS THOMSON CLEAR 36 33 88 CALM 30.23S AUGUSTA-BUSH CLEAR 35 30 82 CALM 30.20S AUGUSTA-DANIEL CLEAR 45 25 45 E6 30.20R SWAINSBORO FAIR 43 32 65 E3 30.20S VIDALIA CLOUDY 48 36 61 CALM 30.19S EASTMAN MOCLDY 42 39 88 CALM 30.20F HAZLEHURST FAIR 53 48 82 SW3 30.17S ALMA CLEAR 54 50 86 S9 30.19R WAYCROSS PTCLDY 56 54 92 SW7 30.20S JESUP FAIR 55 50 82 SW5 30.20R BAXLEY FAIR 55 52 88 SW3 30.18R BRUNSWICK CLEAR 50 46 87 SW7 30.21S SAINT SIMONS CLEAR 54 47 77 SW7 30.20S $$ SCZ027-028-034-036>038-045-046-048>050-GAZ119-141-120500- ...LAKE AND SUPPLEMENTAL COASTAL OBSERVATIONS... STATION/POSITION TIME TEMP WIND PRES WAVE SWELL AIR SEA DIR/SP/G HT/PER HT/PER/DIR (UTC) (F) (DEG/KT/KT) (MB) (FT/S) (FT/S/D) WINYAH BAY NOT AVBL LAKE MURRAY 0300 45 70/ 4/ 6 1022.7R ACE BASIN NERRS NOT AVBL FORT PULASKI 0300 51 50 1022.7 SAPELO ISLAND 0300 51 180/ 6 1022.0S $$ ANZ835-935-AMZ111-154-330-350-352-354-370-450-454-472-120500- ...C-MAN AND BUOY OBSERVATIONS... STATION/POSITION TIME TEMP WIND PRES WAVE SWELL AIR SEA DIR/SP/G HT/PER HT/PER/DIR (UTC) (F) (DEG/KT/KT) (MB) (FT/S) (FT/S/D) BUOY 41004 0350 55 68 40/ 4/ 6 1023.7F 1/ 5 2/ 5 BUOY 41008 0350 55 53 210/ 10/ 12 1022.7S 3/ 5 2/150/ 6 FOLLY BEACH CMAN 0400 49 60/ 7/ 8 1023.4F CAPERS NEARSHORE 0308 51 110/ 4/ 8 1023.8F FRIPP NEARSHORE 0300 52 100/ 10/ 10 1021.9F STATION/POSITION TIME TEMP WIND PRES WAVE SWELL AIR SEA DIR/SP/G HT/PER HT/PER/DIR (UTC) (F) (DEG/KT/KT) (MB) (FT/S) (FT/S/D) 5E ST. MARYS GA 0351 56 N/A 3/ 4 FRYING PAN BUOY 0300 47 57 30/ 6/ 8 1025.7R BUOY 41025 0350 41 68 320/ 12/ 17 1026.4R 3/ 4 2/ 50/ 7 CAPE LOOKOUT NC NOT AVBL BUOY 41002 0350 56 68 300/ 12/ 16 N/A 7/ 8 5/290/ 8 BUOY 41010 0320 63 72 1025.6S ST AUGUSTINE FL 0400 54 57 230/ 6/ 8 1025.0S $$

USA.gov is the U.S. government's official web portal to all federal, state and local government web resources and services.